| time (UTC) | temp F | wind direction | speed MPH | gust MPH | rain 1hr in | rain 24hr in | rain mn in | humidity % | barometer mb |
| 20260506123738 | 57 | 212 | 1.0 | 5.0 | 0.00 | 0.00 | 0.00 | 86 | |
| 20260506122738 | 57 | 186 | 0.0 | 0.0 | 0.00 | 0.00 | 0.00 | 85 | |
| 20260506121738 | 56 | 186 | 0.0 | 0.0 | 0.00 | 0.00 | 0.00 | 84 | |
| 20260506120738 | 56 | 186 | 0.0 | 0.0 | 0.00 | 0.00 | 0.00 | 82 | |
| 20260506115738 | 56 | 186 | 0.0 | 0.0 | 0.00 | 0.00 | 0.00 | 83 | |
| 20260506114737 | 56 | 186 | 0.0 | 0.0 | 0.00 | 0.00 | 0.00 | 83 | |
| 20260506113737 | 56 | 186 | 0.0 | 0.0 | 0.00 | 0.00 | 0.00 | 83 | |
| 20260506112738 | 55 | 186 | 0.0 | 0.0 | 0.00 | 0.00 | 0.00 | 83 | |
| 20260506111738 | 55 | 186 | 0.0 | 0.0 | 0.00 | 0.00 | 0.00 | 83 | |
| 20260506110738 | 55 | 186 | 0.0 | 0.0 | 0.00 | 0.00 | 0.00 | 83 | |
| 20260506105738 | 55 | 186 | 0.0 | 0.0 | 0.00 | 0.00 | 0.00 | 83 | |
| 20260506104737 | 55 | 186 | 0.0 | 1.0 | 0.00 | 0.00 | 0.00 | 83 | |
| 20260506103739 | 55 | 186 | 0.0 | 1.0 | 0.00 | 0.00 | 0.00 | 82 | |
| 20260506102737 | 55 | 186 | 1.0 | 2.0 | 0.00 | 0.00 | 0.00 | 82 | |
| 20260506101738 | 54 | 186 | 1.0 | 1.0 | 0.00 | 0.00 | 0.00 | 82 | |
| 20260506100738 | 54 | 179 | 0.0 | 0.0 | 0.00 | 0.00 | 0.00 | 82 | |
| 20260506095737 | 54 | 182 | 0.0 | 0.0 | 0.00 | 0.00 | 0.00 | 83 | |
| 20260506094737 | 54 | 182 | 0.0 | 0.0 | 0.00 | 0.00 | 0.00 | 83 | |
| 20260506093737 | 54 | 182 | 0.0 | 0.0 | 0.00 | 0.00 | 0.00 | 82 | |
| 20260506092737 | 54 | 182 | 0.0 | 0.0 | 0.00 | 0.00 | 0.00 | 82 | |
| 20260506091738 | 54 | 182 | 0.0 | 0.0 | 0.00 | 0.00 | 0.00 | 82 | |
| 20260506090739 | 54 | 182 | 0.0 | 0.0 | 0.00 | 0.00 | 0.00 | 82 | |
| 20260506084737 | 54 | 182 | 0.0 | 0.0 | 0.00 | 0.00 | 0.00 | 82 | |
| 20260506083737 | 54 | 182 | 0.0 | 0.0 | 0.00 | 0.00 | 0.00 | 81 | |
| 20260506082737 | 54 | 182 | 0.0 | 0.0 | 0.00 | 0.00 | 0.00 | 81 | |
| 20260506081737 | 54 | 182 | 0.0 | 0.0 | 0.00 | 0.00 | 0.00 | 81 | |
| 20260506080737 | 54 | 182 | 0.0 | 0.0 | 0.00 | 0.00 | 0.00 | 81 | |
| 20260506072737 | 54 | 183 | 0.0 | 0.0 | 0.00 | 0.00 | 0.00 | 82 | |
| 20260506071737 | 54 | 184 | 0.0 | 0.0 | 0.00 | 0.00 | 0.00 | 81 | |
| 20260506070737 | 54 | 184 | 0.0 | 0.0 | 0.00 | 0.00 | 0.00 | 81 | |
| 20260506061737 | 54 | 180 | 1.0 | 1.0 | 0.00 | 0.00 | 0.00 | 81 | |
| 20260506060737 | 54 | 180 | 0.0 | 2.0 | 0.00 | 0.00 | 0.00 | 80 | |
| 20260506050737 | 55 | 221 | 0.0 | 2.0 | 0.00 | 0.00 | 0.00 | 78 | |
| 20260506044738 | 56 | 221 | 0.0 | 1.0 | 0.00 | 0.00 | 0.00 | 76 | |
| 20260506043737 | 57 | 221 | 1.0 | 2.0 | 0.00 | 0.00 | 0.00 | 74 | |
| 20260506042738 | 57 | 221 | 0.0 | 2.0 | 0.00 | 0.00 | 0.00 | 73 | |
| 20260506041737 | 57 | 221 | 1.0 | 2.0 | 0.00 | 0.00 | 0.00 | 73 | |
| 20260506040738 | 58 | 221 | 1.0 | 2.0 | 0.00 | 0.00 | 0.00 | 72 | |
| 20260506035737 | 58 | 221 | 0.0 | 2.0 | 0.00 | 0.00 | 0.00 | 71 | |
| 20260506034737 | 58 | 221 | 0.0 | 2.0 | 0.00 | 0.00 | 0.00 | 70 | |
| 20260506033737 | 59 | 221 | 0.0 | 0.0 | 0.00 | 0.00 | 0.00 | 69 | |
| 20260506032737 | 60 | 221 | 0.0 | 0.0 | 0.00 | 0.00 | 0.00 | 68 | |
| 20260506031738 | 60 | 221 | 0.0 | 0.0 | 0.00 | 0.00 | 0.00 | 66 | |
| 20260506030738 | 61 | 221 | 0.0 | 2.0 | 0.00 | 0.00 | 0.00 | 65 | |
| 20260506025737 | 62 | 221 | 1.0 | 2.0 | 0.00 | 0.00 | 0.00 | 65 | |
| 20260506024738 | 63 | 221 | 0.0 | 0.0 | 0.00 | 0.00 | 0.00 | 63 | |
| 20260506023737 | 64 | 221 | 0.0 | 0.0 | 0.00 | 0.00 | 0.00 | 62 | |
| 20260506022737 | 65 | 221 | 0.0 | 0.0 | 0.00 | 0.00 | 0.00 | 60 | |
| 20260506021737 | 65 | 221 | 0.0 | 2.0 | 0.00 | 0.00 | 0.00 | 59 | |
| 20260506020737 | 66 | 221 | 0.0 | 2.0 | 0.00 | 0.00 | 0.00 | 59 | |
| 20260506015738 | 66 | 221 | 0.0 | 3.0 | 0.00 | 0.00 | 0.00 | 59 | |
| 20260506014737 | 66 | 225 | 1.0 | 2.0 | 0.00 | 0.00 | 0.00 | 58 | |
| 20260506013737 | 67 | 225 | 2.0 | 2.0 | 0.00 | 0.00 | 0.00 | 57 | |
| 20260506012737 | 68 | 225 | 0.0 | 2.0 | 0.00 | 0.00 | 0.00 | 56 | |
| 20260506011737 | 68 | 224 | 1.0 | 3.0 | 0.00 | 0.00 | 0.00 | 54 | |
| 20260506010737 | 68 | 236 | 2.0 | 2.0 | 0.00 | 0.00 | 0.00 | 54 | |
| 20260506005737 | 70 | 236 | 1.0 | 2.0 | 0.00 | 0.00 | 0.00 | 52 | |
| 20260506004737 | 71 | 236 | 0.0 | 4.0 | 0.00 | 0.00 | 0.00 | 50 | |
| 20260506003738 | 71 | 200 | 2.0 | 4.0 | 0.00 | 0.00 | 0.00 | 51 | |
| 20260506002737 | 71 | 210 | 1.0 | 5.0 | 0.00 | 0.00 | 0.00 | 50 | |
| 20260506001738 | 71 | 219 | 0.0 | 4.0 | 0.00 | 0.00 | 0.00 | 48 | |
| 20260506000737 | 71 | 217 | 2.0 | 5.0 | 0.00 | 0.00 | 0.00 | 49 | |
| 20260505235737 | 71 | 217 | 1.0 | 4.0 | 0.00 | 0.00 | 0.00 | 51 | |
| 20260505234737 | 72 | 237 | 2.0 | 7.0 | 0.00 | 0.00 | 0.00 | 50 | |
| 20260505233737 | 71 | 221 | 1.0 | 5.0 | 0.00 | 0.00 | 0.00 | 51 | |
| 20260505232737 | 71 | 209 | 1.0 | 5.0 | 0.00 | 0.00 | 0.00 | 52 | |
| 20260505231737 | 71 | 227 | 1.0 | 3.0 | 0.00 | 0.00 | 0.00 | 55 | |
| 20260505230737 | 72 | 231 | 3.0 | 3.0 | 0.00 | 0.00 | 0.00 | 54 | |
| 20260505225737 | 72 | 233 | 3.0 | 5.0 | 0.00 | 0.00 | 0.00 | 50 | |
| 20260505224738 | 73 | 232 | 3.0 | 7.0 | 0.00 | 0.00 | 0.00 | 49 | |
| 20260505223737 | 73 | 264 | 1.0 | 3.0 | 0.00 | 0.00 | 0.00 | 49 | |
| 20260505222737 | 73 | 257 | 2.0 | 9.0 | 0.00 | 0.00 | 0.00 | 48 | |
| 20260505221737 | 73 | 210 | 1.0 | 11.0 | 0.00 | 0.00 | 0.00 | 47 | |
| 20260505220737 | 73 | 238 | 2.0 | 8.0 | 0.00 | 0.00 | 0.00 | 47 | |
| 20260505215737 | 73 | 225 | 10.0 | 10.0 | 0.00 | 0.00 | 0.00 | 46 | |
| 20260505214737 | 74 | 242 | 3.0 | 13.0 | 0.00 | 0.00 | 0.00 | 44 | |
| 20260505213737 | 75 | 207 | 2.0 | 9.0 | 0.00 | 0.00 | 0.00 | 44 | |
| 20260505212737 | 75 | 234 | 5.0 | 14.0 | 0.00 | 0.00 | 0.00 | 42 | |
| 20260505211737 | 76 | 225 | 7.0 | 19.0 | 0.00 | 0.00 | 0.00 | 42 | |
| 20260505210737 | 77 | 249 | 8.0 | 27.0 | 0.00 | 0.00 | 0.00 | 40 | |
| 20260505205737 | 78 | 201 | 15.0 | 37.0 | 0.00 | 0.00 | 0.00 | 37 | |
| 20260505204737 | 77 | 238 | 8.0 | 18.0 | 0.00 | 0.00 | 0.00 | 36 | |
| 20260505203737 | 77 | 243 | 9.0 | 18.0 | 0.00 | 0.00 | 0.00 | 35 | |
| 20260505202738 | 77 | 267 | 11.0 | 22.0 | 0.00 | 0.00 | 0.00 | 34 | |
| 20260505201738 | 78 | 190 | 6.0 | 24.0 | 0.00 | 0.00 | 0.00 | 34 | |
| 20260505200737 | 78 | 247 | 23.0 | 23.0 | 0.00 | 0.00 | 0.00 | 33 | |
| 20260505195737 | 80 | 195 | 18.0 | 23.0 | 0.00 | 0.00 | 0.00 | 31 | |
| 20260505194737 | 81 | 257 | 7.0 | 25.0 | 0.00 | 0.00 | 0.00 | 31 | |
| 20260505193737 | 80 | 238 | 12.0 | 26.0 | 0.00 | 0.00 | 0.00 | 31 | |
| 20260505192738 | 79 | 231 | 15.0 | 26.0 | 0.00 | 0.00 | 0.00 | 32 | |
| 20260505191738 | 79 | 306 | 11.0 | 23.0 | 0.00 | 0.00 | 0.00 | 32 | |
| 20260505190737 | 79 | 290 | 4.0 | 20.0 | 0.00 | 0.00 | 0.00 | 33 | |
| 20260505185737 | 78 | 201 | 3.0 | 30.0 | 0.00 | 0.00 | 0.00 | 33 | |
| 20260505184737 | 80 | 279 | 12.0 | 28.0 | 0.00 | 0.00 | 0.00 | 32 | |
| 20260505183737 | 80 | 242 | 18.0 | 23.0 | 0.00 | 0.00 | 0.00 | 33 | |
| 20260505182737 | 79 | 273 | 12.0 | 25.0 | 0.00 | 0.00 | 0.00 | 33 | |
| 20260505181737 | 79 | 258 | 11.0 | 26.0 | 0.00 | 0.00 | 0.00 | 33 | |
| 20260505180737 | 79 | 247 | 8.0 | 25.0 | 0.00 | 0.00 | 0.00 | 37 | |
| 20260505175737 | 78 | 271 | 13.0 | 27.0 | 0.00 | 0.00 | 0.00 | 37 | |
| 20260505174737 | 79 | 244 | 10.0 | 25.0 | 0.00 | 0.00 | 0.00 | 34 | |
| 20260505173737 | 79 | 259 | 12.0 | 27.0 | 0.00 | 0.00 | 0.00 | 35 | |
| 20260505172737 | 78 | 106 | 4.0 | 18.0 | 0.00 | 0.00 | 0.00 | 39 | |
| 20260505171737 | 78 | 203 | 16.0 | 23.0 | 0.00 | 0.00 | 0.00 | 39 | |
| 20260505170738 | 78 | 201 | 11.0 | 17.0 | 0.00 | 0.00 | 0.00 | 40 | |
| 20260505165737 | 78 | 225 | 15.0 | 25.0 | 0.00 | 0.00 | 0.00 | 41 | |
| 20260505164737 | 78 | 240 | 20.0 | 20.0 | 0.00 | 0.00 | 0.00 | 40 | |
| 20260505163737 | 78 | 254 | 5.0 | 24.0 | 0.00 | 0.00 | 0.00 | 41 | |
| 20260505162738 | 77 | 194 | 10.0 | 20.0 | 0.00 | 0.00 | 0.00 | 43 | |
| 20260505161737 | 76 | 119 | 3.0 | 24.0 | 0.00 | 0.00 | 0.00 | 42 | |
| 20260505160737 | 77 | 226 | 4.0 | 20.0 | 0.00 | 0.00 | 0.00 | 41 | |
| 20260505152737 | 75 | 205 | 5.0 | 19.0 | 0.00 | 0.00 | 0.00 | 47 | |
| 20260505151737 | 74 | 242 | 8.0 | 28.0 | 0.00 | 0.00 | 0.00 | 47 | |
| 20260505150737 | 74 | 234 | 17.0 | 26.0 | 0.00 | 0.00 | 0.00 | 47 | |
| 20260505124737 | 66 | 248 | 3.0 | 12.0 | 0.00 | 0.00 | 0.00 | 59 |